Hourly Data Report for October 07, 2014

All times are specified in Local Standard Time (LST). Add 1 hour to adjust for Daylight Saving Time where and when it is observed.

BATHURST A
NEW BRUNSWICK

47°37'47.000" N
65°44'20.000" W
58.80 m
8100505
71574
ZBF

Download Data

Hourly Data (October 2014)
Hourly Data Report for October 7, 2014
Temp Definition
°C
Dew Point Temp Definition
°C
Rel Hum Definition
%
Wind Dir Definition
10's deg

Wind Spd Definition
km/h
Visibility Definition
km
Stn Press Definition
kPa
Hmdx Definition


Wind Chill Definition


Weather Definition


TIME
00:00 Legend Double Dagger 3.2 2.8 97 20 3 24.1 101.60     LegendNANA
01:00 Legend Double Dagger 2.3 1.6 95 36 2 24.1 101.63     LegendNANA
02:00 Legend Double Dagger 2.4 1.8 96 23 7 24.1 101.67     Clear
03:00 Legend Double Dagger 2.0 1.6 97 22 5 24.1 101.65     LegendNANA
04:00 Legend Double Dagger 1.7 1.3 97 22 5 24.1 101.66     LegendNANA
05:00 Legend Double Dagger 1.0 0.6 97 20 5 24.1 101.67     Clear
06:00 Legend Double Dagger 1.5 1.1 97 22 7 24.1 101.69     LegendNANA
07:00 Legend Double Dagger 3.0 2.6 97 21 7 24.1 101.74     LegendNANA
08:00 Legend Double Dagger 5.6 4.9 95 19 11 24.1 101.76     Mostly Cloudy
09:00 Legend Double Dagger 8.9 7.2 89 19 8 24.1 101.78     LegendNANA
10:00 Legend Double Dagger 10.8 7.5 80 17 10 24.1 101.71     LegendNANA
11:00 Legend Double Dagger 11.9 7.5 74 16 11 24.1 101.72     Mostly Cloudy
12:00 Legend Double Dagger 13.5 5.7 59 18 11 24.1 101.63     LegendNANA
13:00 Legend Double Dagger 14.3 6.0 57 20 13 24.1 101.50     LegendNANA
14:00 Legend Double Dagger 16.6 6.8 52 19 9 24.1 101.43     Mainly Clear
15:00 Legend Double Dagger 17.5 7.9 53 23 11 24.1 101.41     LegendNANA
16:00 Legend Double Dagger 16.5 9.0 61 23 4 24.1 101.31     LegendNANA
17:00 Legend Double Dagger 15.9 9.2 64 36 3 24.1 101.29     Mainly Clear
18:00 Legend Double Dagger 14.4 8.4 67 11 13 24.1 101.24     LegendNANA
19:00 Legend Double Dagger 13.2 8.3 72 12 7 24.1 101.27     LegendNANA
20:00 Legend Double Dagger 12.4 8.7 78 13 3 24.1 101.26     Cloudy
21:00 Legend Double Dagger 12.8 8.9 77 16 3 24.1 101.23     LegendNANA
22:00 Legend Double Dagger 13.2 8.1 71 18 11 24.1 101.19     LegendNANA
23:00 Legend Double Dagger 13.0 8.1 72 19 9 24.1 101.17     Cloudy

Notes on Data Quality.

Legend

  • E = Estimated
  • M = Missing
  • NA = Not Available
  • ‡ = Partner data that is not subject to review by the National Climate Archives
Date modified: